カタログに戻る

COSMOS 1109 DEB

LostHEO
NORAD 12833·DEBRIS·🇷🇺 Russia

打ち上げ Jun 27, 1979 から Plesetsk Cosmodrome

Loading…

次のパス (今後24時間)

TLE

古いSource: Space-Track

元期: Sep 16, 1999, 14:44 UTC

1 12833U 79058E   99259.61443205 +.00000673 +00000-0 +10000-1 0  9993
2 12833 065.5589 143.6094 6926485 158.4276 261.4784 02.00448581190157

AllMySatでCOSMOS 1109 DEBをリアルタイム追跡

Download on the App Store